Regional Weather Roundup
Issued by NWS Goodland, KS

Home | Current Version | Previous Version | Graphics & Text | Print | Product List | Glossary On
Versions: 1 2 3 4 5 6 7 8 9 10 11 12 13 14 15 16 17 18 19 20 21 22 23 24 25 26 27 28 29 30 31 32 33 34 35 36 37 38 39 40 41 42 43 44 45 46 47 48 49 50
000
ASUS43 KGLD 241059
RWRGLD

GOODLAND FORECAST AREA HOURLY WEATHER ROUNDUP
NATIONAL WEATHER SERVICE GOODLAND KS
400 AM MST FRI NOV 24 2017

...OFFICIAL OBSERVATIONS...

CITY           SKY/WX    TMP DP  RH WIND       PRES   REMARKS
GOODLAND KS    PTCLDY    46  33  60 W9        29.75F
HILL CITY KS   MOCLDY    47  38  71 W8        29.71F
IMPERIAL NEB   CLEAR     48  30  49 W13       29.73F
MCCOOK NEB     PTCLDY    45  36  70 W12       29.70F
AKRON CO       CLOUDY    51  23  33 SW8       29.81F
BURLINGTON CO  CLOUDY    44  31  60 W7        29.78F
LIMON CO       CLOUDY    37  25  61 NW9       29.86F
$$

...UNOFFICIAL OBSERVATIONS...

CITY           SKY/WX    TMP DP  RH WIND       PRES   REMARKS
LENORA KS        N/A     52  32  46 W7          N/A
NORTON KS      CLEAR     45  34  65 SW7       29.69
SHARON SPRINGS   N/A     41  34  75 W7          N/A
KIT CARSON CO    N/A     35  29  80 CALM        N/A
YUMA CO        FAIR      41  28  60 W9        29.79S
$$




USA.gov is the U.S. government's official web portal to all federal, state and local government web resources and services.